Sigil TimeFrame

Sigil TimeFrame ⇒ XML

NameTime LeftWindow OpensKilledCrew
Animated Captain8d 06:162018-08-11 09:17:002018-04-17 13:21:00Phoenix Rising
Old World Drake5d 08:512018-08-14 06:42:002018-03-15 01:48:00The Immortal Legion
Great Lord Ganeshan1d 10:362018-08-18 04:57:002018-05-02 07:13:00[Fate] Breakaway
Esquin, the Kinetic Master1d 07:322018-08-18 08:01:002018-04-29 20:47:00The Truly Terrible Ten
Akkel the Enflamed Warrior1d 00:022018-08-18 15:31:002018-05-02 21:03:00SAVAGE [ASTRAL2]
Sylvanna TorLai0d 20:002018-08-18 19:33:002018-04-30 18:37:00The Fluffy Savages
Varsanor, Master of Darkness0d 16:592018-08-18 22:34:002018-04-30 23:28:00The Order
Felroc, Overseer of Hellfire0d 12:232018-08-19 03:10:002018-05-03 09:25:00Hero Academia
The Emerald Assassin0d 11:342018-08-19 03:59:002018-05-02 12:21:00Dominating Penguins
Crolvak, the Fire Master0d 09:352018-08-19 05:58:002018-05-03 23:19:00The Terrible Ten
Slashbrood, Devourer of the Blackness0d 09:112018-08-19 06:22:002018-04-29 13:05:00[Fate] Ironhide
Vitkros, Hydra of the Deep0d 06:382018-08-19 08:55:002018-05-04 04:25:00Latvija
Zikkir the Dark Archer0d 06:302018-08-19 09:03:002018-05-03 00:35:00SAVAGE [ASTRAL3]
Shadow0d 06:162018-08-19 09:17:002018-05-03 02:58:00• Rev†vaL •
Baron Mu, Dark Rider of the Undead0d 05:382018-08-19 09:55:002018-05-04 05:50:00SAVAGE [BARON]
Lord Varan0d 05:202018-08-19 10:13:002018-05-03 15:02:00[Fate] Breakaway
Lady Chaos, Queen of the Abyss0d 03:202018-08-19 12:13:002018-05-02 15:54:00[Fate] Bonecrusher
Jorun the Blazing Swordsman0d 02:532018-08-19 12:40:002018-05-03 11:15:00[Fate] Optimus
Jazzmin, Maiden of Vitality0d 02:482018-08-19 12:45:002018-05-03 07:04:00Dominating Penguins
Rancid, Lord of Thugs0d 02:092018-08-19 13:24:002018-05-03 17:43:00Harvester Of Sorrow
Freezebreed, The Frozen Manipulator0d 01:472018-08-19 13:46:002018-05-03 14:26:00[Fate] Soundwave
Tsort0d 00:392018-08-19 14:54:002018-05-03 07:14:00Sigil
Sarcrina the Astral Priestess0d 00:132018-08-19 15:20:002018-05-02 13:45:00[Fate] Sqweeks
Nessam0d 00:122018-08-19 15:21:002018-05-03 17:25:00•| Dark Prophecy |•
Lord Xordam0d 00:092018-08-19 15:43:002018-05-01 09:32:00• Rev†vaL •
Dreg nor, Keeper of the Infernal Essence0d 00:132018-08-19 15:47:002018-05-02 23:15:00Emailcash Crew
Hackerphage, Protector of the Gateway0d 01:112018-08-19 16:45:002018-05-03 04:55:00SAVAGE [COES4]
Ebliss, Fallen Angel of Despair0d 01:362018-08-19 17:10:002018-05-03 21:17:00SAVAGE [POT2]
Hyrak, Bringer of Nightmares0d 03:452018-08-19 19:19:002018-05-03 08:03:00XXxxHoTMoROxxXX
Balerion, Dragon of Dread0d 04:022018-08-19 19:36:002018-04-29 02:54:00SAVAGES
Lacuste of the Swarm0d 04:042018-08-19 19:38:002018-05-03 19:15:00SAVAGE
Gnorb0d 04:142018-08-19 19:48:002018-05-02 05:12:00• AfterShock •_1
Anguish0d 04:172018-08-19 19:51:002018-05-02 01:06:00Sigil
Wanhiroeaz the Devourer0d 05:312018-08-19 21:05:002018-05-03 17:40:00Harvester Of Sorrow
Threk, King of Lords0d 06:062018-08-19 21:40:002018-05-02 01:27:00TeddyPain Production's
Lady Ariella0d 06:592018-08-19 22:33:002018-05-02 16:36:00[Fate] Breakaway
Lord Suka0d 07:052018-08-19 22:39:002018-05-01 21:05:00SAVAGE [POT1]
Quiver, The Renegade0d 07:372018-08-19 23:11:002018-04-29 03:31:00•Invi†cus Mortem•
Crane0d 07:432018-08-19 23:17:002018-05-04 06:05:00Sigil
Detox0d 08:262018-08-20 00:00:002018-05-02 12:57:00•| Dark Prophecy |•
Emperor Neudeus, Controller of the Universe0d 09:532018-08-20 01:27:002018-05-01 06:47:00[Fate] Barricade
Smoot the Yeti0d 10:062018-08-20 01:40:002018-05-03 21:29:00•| Dark Prophecy |•
Mistress of the Sword0d 10:242018-08-20 01:58:002018-05-03 13:26:00Not Losters RGA
Ganja the Stone Golem0d 11:072018-08-20 02:41:002018-05-03 11:55:00•| Dark Prophecy |•
Grivvek, Protector of the Brood0d 11:302018-08-20 03:04:002018-05-03 15:58:00Pure and Driven
Crantos, Defender of Ultimation0d 11:542018-08-20 03:28:002018-04-29 16:28:00The Order
Tylos, The Lord Master0d 12:562018-08-20 04:30:002018-05-02 20:53:00Harvester Of Sorrow
Amalgamated Apparition0d 13:422018-08-20 05:16:002018-05-03 21:48:00SAVAGE [ASTRAL3]
Anvilfist0d 13:472018-08-20 05:21:002018-04-30 22:39:00Where's The Loot At ?!
Garland, The Lord Keeper0d 15:052018-08-20 06:39:002018-05-04 04:19:00Latvija
Volgan the Living Ironbark0d 15:182018-08-20 06:52:002018-05-02 07:33:00[Fate] Megatron
Q-SEC Commander0d 16:132018-08-20 07:47:002018-05-02 14:40:00Phoenix Rising
Synge, The Red Dragon0d 17:242018-08-20 08:58:002018-05-03 11:19:00• Rev†vaL •
Skybrine The Inescapable0d 18:202018-08-20 09:54:002018-04-29 09:46:00~ White Sands Fortress ~
Traxodon the Plaguebringer0d 19:262018-08-20 11:00:002018-05-01 12:37:00TeddyPain Production's
Archdevil Yirkon0d 19:572018-08-20 11:31:002018-05-02 03:42:00SAVAGE [ASTRAL3]
Gorganus of the Wood0d 20:082018-08-20 11:42:002018-05-02 20:36:00Where's The Loot At ?!
Sigil, Lich of Woe0d 20:172018-08-20 11:51:002018-04-30 21:12:00The Order
Terrance, Rebel of Rallis0d 22:442018-08-20 14:18:002018-05-02 09:42:00Not Losters RGA
Howldroid, Tormentor of the Pit1d 00:222018-08-20 15:56:002018-05-04 01:54:00SAVAGE [COES2]
Nafir, God of Desolation1d 01:042018-08-20 16:38:002018-05-03 03:52:00The Terrible Ten
Bloodchill the Grizzly1d 02:472018-08-20 18:21:002018-05-03 09:40:00• AfterShock •_1
Pinosis1d 05:282018-08-20 21:02:002018-05-03 21:57:00• Rev†vaL •
Windstrike The Vile1d 05:462018-08-20 21:20:002018-04-29 09:26:00Hero Academia
Brutalitar, Lord of the Underworld1d 06:082018-08-20 21:42:002018-05-02 09:08:00[Fate] Hound
Ancient Magus Tarkin1d 06:292018-08-20 22:03:002018-05-03 09:11:00[Fate] Sqweeks
Numerocure, The Black Messenger of Evil1d 07:232018-08-20 22:57:002018-05-01 22:14:00SAVAGE [COES4]
Lord Sibannac1d 07:282018-08-20 23:02:002018-05-03 02:57:00.::BRUTE-FORCE::.
Lord Narada1d 08:252018-08-20 23:59:002018-05-04 02:56:00[Fate] Breakaway
Rotborn, Eater of the Dead1d 08:292018-08-21 00:03:002018-05-03 04:58:00[Fate] Ironhide
Melt Bane, The Forbidden Demon Dragon1d 10:312018-08-21 02:05:002018-05-03 18:56:00SAVAGE [COES4]
Kro Shuk, Doomslayer1d 10:382018-08-21 02:12:002018-05-01 08:11:00Emailcash Crew
Nar Zhul, Slayer of All1d 14:452018-08-21 06:19:002018-05-03 21:27:00The Order
Bolkor, the Holy Master1d 19:542018-08-21 11:28:002018-05-02 15:30:00Transformers
Ag Nabak the Abomination1d 22:512018-08-21 14:25:002018-05-01 01:04:00.::BRUTE-FORCE::.
Murderface1d 23:592018-08-21 15:33:002018-05-03 03:19:00• Rev†vaL •
King Ashnar, Lord of the Unliving2d 00:322018-08-21 16:06:002018-05-01 20:13:00[Fate] Drift
Keeper of Nature2d 02:242018-08-21 17:58:002018-05-01 02:10:00SAVAGE [ASTRAL3]
Samatha Dark-Soul2d 03:572018-08-21 19:31:002018-05-02 13:27:00• Rev†vaL •
Ormsul the Putrid2d 05:072018-08-21 20:41:002018-05-02 06:08:00The Fluffy Savages
Nayark the Mummified Sorcerer2d 14:392018-08-22 06:13:002018-05-03 19:41:00SAVAGE [ASTRAL4]
Skarthul the Avenged2d 18:082018-08-22 09:42:002018-05-03 07:41:00Fate
Zertan, The Collector2d 23:292018-08-22 15:03:002018-05-03 02:09:00Not Losters RGA
Karvaz, Lord of Alsayic3d 01:322018-08-22 17:06:002018-05-03 01:51:00SAVAGES
Kretok, Descendant of Nature3d 01:532018-08-22 17:27:002018-04-28 05:22:00The Truly Terrible Ten
Viserion, the Necrodragon3d 03:512018-08-22 19:25:002018-04-29 12:50:00Fate
Xynak, the Arcane Master3d 14:162018-08-23 05:50:002018-04-29 16:33:00•Ou†war Immor†als•
Raiyar, the Shadow Master4d 07:292018-08-23 23:03:002018-05-03 22:23:00SAVAGES
Straya, the Underworld Ruler4d 10:512018-08-24 02:25:002018-05-02 09:50:00SAVAGES
Dlanod, the Crazed Chancellor4d 23:282018-08-24 15:02:002018-05-03 01:24:00SAVAGES
Shaik, Servant of Arkron43d 11:082018-07-07 04:25:002017-09-28 19:19:00SAVAGE [ASTRAL1]
Rook, Hand of Arkron41d 12:582018-07-09 02:35:002017-09-28 14:41:00Where's The Loot At ?!
Jade Dragonite16d 15:252018-08-03 00:08:002018-03-15 01:54:00The Immortal Legion
Noxious Slug1d 01:272018-08-18 14:06:002017-11-27 09:32:00The Immortal Legion
Beast of Cards1d 01:182018-08-18 14:15:002017-11-27 09:42:00The Immortal Legion
95 Gods, Last update: 2018-08-19 15:30:12